Tracking 19176 objects as of 27-May-2018
HD Live streaming from Space Station
objects crossing your sky now

NOAA 16 DEB

Track NOAA 16 DEB now!
10-day predictions


NORAD ID: 42362
Int'l Code: 2000-055RE
Perigee: 860.1 km
Apogee: 1,040.9 km
Inclination: 98.9 °
Period: 103.9 minutes
Semi major axis: 7321 km
RCS: Unknown
Launch date: September 21, 2000
Source: United States (US)
Launch site: AIR FORCE WESTERN TEST RANGE (AFWTR)

Note: This is SATELLITE DEBRIS
aabbcc
Your satellite tracking list
Your tracking list is empty




NASA's NSSDC Master Catalog

Two Line Element Set (TLE):
1 42362U 00055RE  18145.91052746 +.00000714 +00000-0 +62105-3 0  9999
2 42362 098.8952 180.7105 0123475 336.9826 022.5827 13.85798590117652
Source of the keplerian elements: AFSPC